Flag for U.S.A. Weather past 2 weeks in Thousand Oaks, California, U.S.A.

Now
70 °F

Overcast.


Feels Like: 73 °F
Forecast: 62 / 78 °F
Wind: No wind

Location: Camarillo Airport

Current Time: Sep 19, 2014 at 3:31:14 AM

Latest Report: Sep 19, 2014 at 2:55 AM


Visibility: 10 mi

Pressure: 29.88 "Hg

Humidity: 73%

Dew point: 61 °F

Location of Thousand OaksLocation

Historic Weather in Thousand Oaks — Graph

°F

Thousand Oaks temperature yesterday

Maximum temperature yesterday: 81 °F (at 11:55 AM)
Minimum temperature yesterday: 64 °F (at 4:55 AM)
Average temperature yesterday: 72 °F

Past Weeks' High & Low Weather Summary

 TemperatureHumidityPressure
High90 °F (Sep 16, 12:55 PM)87% (Sep 6, 3:55 AM)29.95 "Hg (Sep 6, 3:55 AM)
Low58 °F (Sep 6, 3:55 AM)30% (Sep 10, 2:55 PM)29.71 "Hg (Sep 16, 4:55 PM)
Average74 °F63%29.83 "Hg
* Reported Sep 4 1:55 AM — Sep 19 1:55 AM, Thousand Oaks, Weather by CustomWeather, © 2014

Note: Actual official high and low records may vary slightly from our data, if they occured in-between our weather recording intervals... More about our weather records

Advertising

Thousand Oaks weather history for previous 24 hours

 ConditionsComfort  
Time TempWeatherWind HumidityBarometerVisibility
1:55 AM
Sep 19
70 °FOvercast.3 mph76%29.88 "Hg10 mi
12:55 AM71 °FOvercast.3 mph71%29.87 "Hg10 mi
11:55 PM
Sep 18
71 °FOvercast.3 mph73%29.87 "Hg10 mi
10:55 PM70 °FOvercast.3 mph76%29.87 "Hg10 mi
9:55 PM70 °FOvercast.3 mph76%29.88 "Hg10 mi
8:55 PM70 °FPassing clouds.No wind76%29.86 "Hg10 mi
7:55 PM70 °FLow clouds.7 mph76%29.85 "Hg10 mi
6:55 PM71 °FPartly sunny.13 mph73%29.85 "Hg10 mi
5:55 PM74 °FLight rain. Sunny.15 mph67%29.84 "Hg10 mi
4:55 PM78 °FSunny.17 mph56%29.83 "Hg10 mi
3:55 PM80 °FSunny.15 mph54%29.83 "Hg10 mi
2:55 PM81 °FSunny.14 mph54%29.85 "Hg10 mi
1:55 PM80 °FSunny.15 mph56%29.86 "Hg10 mi
12:55 PM81 °FSunny.10 mph51%29.88 "Hg10 mi
11:55 AM81 °FSunny.10 mph51%29.88 "Hg10 mi
10:55 AM78 °FSunny.8 mph58%29.88 "Hg10 mi
9:55 AM74 °FSunny.No wind62%29.89 "Hg10 mi
8:55 AM72 °FSunny.No wind66%29.89 "Hg10 mi
7:55 AM70 °FSunny.5 mph66%29.87 "Hg10 mi
6:55 AM65 °FClear.5 mph73%29.85 "Hg10 mi
5:55 AM65 °FClear.6 mph73%29.83 "Hg10 mi
4:55 AM64 °FClear.5 mph73%29.82 "Hg10 mi
3:55 AM67 °FClear.5 mph71%29.82 "Hg10 mi
Weather by CustomWeather, © 2014

See weather overviewHow to use our weather pages